| time (UTC) | temp F | wind direction | speed MPH | gust MPH | rain 1hr in | rain 24hr in | rain mn in | humidity % | barometer mb |
| 20260509150327 | 60 | 205 | 1.0 | 4.0 | 0.00 | 0.00 | 0.00 | 77 | 1011.9 |
| 20260509145822 | 60 | 79 | 0.0 | 3.0 | 0.00 | 0.00 | 0.00 | 77 | 1012.0 |
| 20260509145311 | 60 | 159 | 0.0 | 4.0 | 0.00 | 0.00 | 0.00 | 77 | 1011.9 |
| 20260509144806 | 60 | 160 | 0.0 | 4.0 | 0.00 | 0.00 | 0.00 | 77 | 1011.9 |
| 20260509144523 | 60 | 160 | 1.0 | 4.0 | 0.00 | 0.00 | 0.00 | 77 | 1012.0 |
| 20260509143750 | 60 | 115 | 0.0 | 4.0 | 0.00 | 0.00 | 0.00 | 77 | 1012.0 |
| 20260509143244 | 60 | 229 | 1.0 | 4.0 | 0.00 | 0.00 | 0.00 | 77 | 1012.0 |
| 20260509142738 | 60 | 229 | 1.0 | 4.0 | 0.00 | 0.00 | 0.00 | 77 | 1011.9 |
| 20260509142456 | 60 | 230 | 1.0 | 4.0 | 0.00 | 0.00 | 0.00 | 77 | 1011.7 |
| 20260509141722 | 60 | 233 | 1.0 | 4.0 | 0.00 | 0.00 | 0.00 | 77 | 1011.7 |
| 20260509141215 | 60 | 40 | 1.0 | 4.0 | 0.00 | 0.00 | 0.00 | 77 | 1011.8 |
| 20260509140703 | 59 | 200 | 1.0 | 3.0 | 0.00 | 0.00 | 0.00 | 79 | 1011.9 |
| 20260509140158 | 59 | 221 | 1.0 | 3.0 | 0.00 | 0.00 | 0.00 | 81 | 1011.8 |
| 20260509135651 | 58 | 181 | 1.0 | 4.0 | 0.00 | 0.00 | 0.00 | 84 | 1011.9 |
| 20260509135400 | 57 | 88 | 1.0 | 4.0 | 0.00 | 0.00 | 0.00 | 85 | 1011.9 |
| 20260509134636 | 56 | 76 | 0.0 | 3.0 | 0.00 | 0.00 | 0.00 | 87 | 1011.8 |
| 20260509134356 | 55 | 76 | 0.0 | 3.0 | 0.00 | 0.00 | 0.00 | 87 | 1012.0 |
| 20260509133620 | 55 | 76 | 0.0 | 3.0 | 0.00 | 0.00 | 0.00 | 87 | 1012.1 |
| 20260509133114 | 55 | 76 | 1.0 | 3.0 | 0.00 | 0.00 | 0.00 | 87 | 1012.0 |
| 20260509132608 | 54 | 79 | 1.0 | 3.0 | 0.00 | 0.00 | 0.00 | 88 | 1011.9 |
| 20260509132058 | 54 | 79 | 1.0 | 2.0 | 0.00 | 0.00 | 0.00 | 88 | 1011.9 |
| 20260509131552 | 54 | 79 | 0.0 | 2.0 | 0.00 | 0.00 | 0.00 | 88 | 1012.0 |
| 20260509131046 | 54 | 79 | 0.0 | 1.0 | 0.00 | 0.00 | 0.00 | 88 | 1012.0 |
| 20260509130536 | 53 | 79 | 0.0 | 0.0 | 0.00 | 0.00 | 0.00 | 88 | 1012.2 |
| 20260509130030 | 53 | 79 | 0.0 | 0.0 | 0.00 | 0.00 | 0.00 | 88 | 1012.3 |
| 20260509125524 | 53 | 79 | 0.0 | 0.0 | 0.00 | 0.00 | 0.00 | 88 | 1012.3 |
| 20260509125014 | 53 | 79 | 0.0 | 0.0 | 0.00 | 0.00 | 0.00 | 88 | 1012.3 |
| 20260509124508 | 53 | 79 | 0.0 | 0.0 | 0.00 | 0.00 | 0.00 | 88 | 1012.3 |
| 20260509124002 | 53 | 79 | 0.0 | 0.0 | 0.00 | 0.00 | 0.00 | 88 | 1012.4 |
| 20260509123451 | 53 | 79 | 0.0 | 2.0 | 0.00 | 0.00 | 0.00 | 88 | 1012.2 |
| 20260509122946 | 53 | 79 | 0.0 | 2.0 | 0.00 | 0.00 | 0.00 | 88 | 1012.3 |
| 20260509122657 | 52 | 79 | 0.0 | 2.0 | 0.00 | 0.00 | 0.00 | 87 | 1012.4 |
| 20260509121929 | 52 | 79 | 0.0 | 2.0 | 0.00 | 0.00 | 0.00 | 87 | 1012.1 |
| 20260509121424 | 52 | 79 | 0.0 | 2.0 | 0.00 | 0.00 | 0.00 | 87 | 1012.3 |
| 20260509120917 | 52 | 79 | 0.0 | 2.0 | 0.00 | 0.00 | 0.00 | 86 | 1012.6 |
| 20260509120408 | 52 | 79 | 0.0 | 2.0 | 0.00 | 0.00 | 0.00 | 87 | 1012.6 |
| 20260509115902 | 52 | 79 | 0.0 | 2.0 | 0.00 | 0.00 | 0.00 | 87 | 1012.3 |
| 20260509115356 | 52 | 79 | 0.0 | 2.0 | 0.00 | 0.00 | 0.00 | 87 | 1012.2 |
| 20260509114846 | 51 | 80 | 0.0 | 3.0 | 0.00 | 0.00 | 0.00 | 87 | 1012.2 |
| 20260509114613 | 51 | 80 | 0.0 | 3.0 | 0.00 | 0.00 | 0.00 | 86 | 1012.3 |
| 20260509113834 | 51 | 80 | 0.0 | 3.0 | 0.00 | 0.00 | 0.00 | 86 | 1012.4 |
| 20260509113547 | 51 | 71 | 0.0 | 3.0 | 0.00 | 0.00 | 0.00 | 86 | 1011.9 |
| 20260509112817 | 51 | 70 | 0.0 | 3.0 | 0.00 | 0.00 | 0.00 | 86 | 1011.9 |
| 20260509112531 | 51 | 71 | 0.0 | 0.0 | 0.00 | 0.00 | 0.00 | 86 | 1012.1 |
| 20260509112025 | 51 | 72 | 0.0 | 0.0 | 0.00 | 0.00 | 0.00 | 86 | 1012.3 |
| 20260509111257 | 51 | 72 | 0.0 | 0.0 | 0.00 | 0.00 | 0.00 | 86 | 1012.5 |
| 20260509110750 | 51 | 72 | 0.0 | 0.0 | 0.00 | 0.00 | 0.00 | 86 | 1012.3 |
| 20260509110238 | 51 | 72 | 0.0 | 0.0 | 0.00 | 0.00 | 0.00 | 87 | 1012.6 |
| 20260509105733 | 51 | 72 | 0.0 | 0.0 | 0.00 | 0.00 | 0.00 | 87 | 1012.6 |
| 20260509105226 | 51 | 72 | 0.0 | 0.0 | 0.00 | 0.00 | 0.00 | 87 | 1012.5 |
| 20260509104717 | 50 | 72 | 0.0 | 0.0 | 0.00 | 0.00 | 0.00 | 87 | 1012.1 |
| 20260509104211 | 50 | 72 | 0.0 | 0.0 | 0.00 | 0.00 | 0.00 | 87 | 1012.2 |
| 20260509103704 | 50 | 72 | 0.0 | 0.0 | 0.00 | 0.00 | 0.00 | 88 | 1012.3 |
| 20260509103154 | 50 | 72 | 0.0 | 0.0 | 0.00 | 0.00 | 0.00 | 88 | 1012.1 |
| 20260509102908 | 50 | 72 | 0.0 | 0.0 | 0.00 | 0.00 | 0.00 | 88 | 1012.1 |
| 20260509102142 | 50 | 72 | 0.0 | 0.0 | 0.00 | 0.00 | 0.00 | 89 | 1012.0 |
| 20260509101633 | 50 | 72 | 0.0 | 0.0 | 0.00 | 0.00 | 0.00 | 89 | 1011.9 |
| 20260509101126 | 50 | 72 | 0.0 | 0.0 | 0.00 | 0.00 | 0.00 | 89 | 1012.1 |
| 20260509100621 | 50 | 72 | 0.0 | 0.0 | 0.00 | 0.00 | 0.00 | 89 | 1011.9 |
| 20260509100111 | 50 | 72 | 0.0 | 0.0 | 0.00 | 0.00 | 0.00 | 90 | 1012.0 |
| 20260509095604 | 50 | 72 | 0.0 | 0.0 | 0.00 | 0.00 | 0.00 | 90 | 1012.0 |
| 20260509095318 | 50 | 72 | 0.0 | 0.0 | 0.00 | 0.00 | 0.00 | 90 | 1011.9 |
| 20260509094555 | 50 | 72 | 0.0 | 0.0 | 0.00 | 0.00 | 0.00 | 90 | 1012.1 |
| 20260509094051 | 50 | 72 | 0.0 | 0.0 | 0.00 | 0.00 | 0.00 | 90 | 1012.0 |
| 20260509093550 | 50 | 72 | 0.0 | 0.0 | 0.00 | 0.00 | 0.00 | 90 | 1012.0 |
| 20260509093049 | 50 | 72 | 0.0 | 0.0 | 0.00 | 0.00 | 0.00 | 90 | 1012.1 |
| 20260509092551 | 50 | 72 | 0.0 | 0.0 | 0.00 | 0.00 | 0.00 | 90 | 1012.1 |
| 20260509092049 | 50 | 72 | 0.0 | 0.0 | 0.00 | 0.00 | 0.00 | 90 | 1012.2 |
| 20260509091815 | 50 | 72 | 0.0 | 0.0 | 0.00 | 0.00 | 0.00 | 90 | 1012.1 |
| 20260509091048 | 50 | 72 | 0.0 | 0.0 | 0.00 | 0.00 | 0.00 | 90 | 1012.1 |
| 20260509090545 | 50 | 72 | 0.0 | 0.0 | 0.00 | 0.00 | 0.00 | 89 | 1012.2 |
| 20260509090305 | 50 | 72 | 0.0 | 0.0 | 0.00 | 0.00 | 0.00 | 90 | 1012.1 |
| 20260509085541 | 50 | 72 | 0.0 | 0.0 | 0.00 | 0.00 | 0.00 | 90 | 1012.0 |
| 20260509085042 | 50 | 72 | 0.0 | 0.0 | 0.00 | 0.00 | 0.00 | 90 | 1012.0 |
| 20260509084542 | 50 | 72 | 0.0 | 0.0 | 0.00 | 0.00 | 0.00 | 90 | 1012.2 |
| 20260509084041 | 50 | 72 | 0.0 | 0.0 | 0.00 | 0.00 | 0.00 | 90 | 1012.3 |
| 20260509083541 | 50 | 72 | 0.0 | 0.0 | 0.00 | 0.00 | 0.00 | 89 | 1012.3 |
| 20260509083041 | 50 | 72 | 0.0 | 0.0 | 0.00 | 0.00 | 0.00 | 89 | 1012.3 |
| 20260509082534 | 50 | 72 | 0.0 | 0.0 | 0.00 | 0.00 | 0.00 | 89 | 1012.4 |
| 20260509082029 | 50 | 72 | 0.0 | 0.0 | 0.00 | 0.01 | 0.00 | 89 | 1012.5 |
| 20260509081742 | 50 | 72 | 0.0 | 0.0 | 0.00 | 0.01 | 0.00 | 88 | 1012.4 |
| 20260509081012 | 50 | 72 | 0.0 | 0.0 | 0.00 | 0.01 | 0.00 | 88 | 1012.3 |
| 20260509080511 | 50 | 72 | 0.0 | 0.0 | 0.00 | 0.01 | 0.00 | 88 | 1012.3 |
| 20260509080009 | 50 | 72 | 0.0 | 0.0 | 0.00 | 0.02 | 0.00 | 88 | 1012.3 |
| 20260509075510 | 50 | 72 | 0.0 | 0.0 | 0.00 | 0.02 | 0.00 | 88 | 1012.4 |
| 20260509075007 | 50 | 72 | 0.0 | 0.0 | 0.00 | 0.02 | 0.00 | 88 | 1012.6 |
| 20260509074728 | 50 | 72 | 0.0 | 0.0 | 0.00 | 0.02 | 0.00 | 88 | 1012.7 |
| 20260509074009 | 50 | 72 | 0.0 | 0.0 | 0.00 | 0.02 | 0.00 | 88 | 1012.7 |
| 20260509073509 | 50 | 72 | 0.0 | 0.0 | 0.00 | 0.02 | 0.00 | 88 | 1012.7 |
| 20260509073007 | 50 | 72 | 0.0 | 0.0 | 0.00 | 0.02 | 0.00 | 88 | 1012.6 |
| 20260509072505 | 50 | 72 | 0.0 | 0.0 | 0.00 | 0.02 | 0.00 | 88 | 1012.5 |
| 20260509072003 | 50 | 72 | 0.0 | 0.0 | 0.00 | 0.02 | 0.00 | 87 | 1012.3 |
| 20260509071501 | 50 | 72 | 0.0 | 0.0 | 0.00 | 0.02 | 0.00 | 87 | 1012.3 |
| 20260509071450 | 50 | 72 | 0.0 | 0.0 | 0.00 | 0.02 | 0.00 | 87 | 1012.2 |
| 20260509070457 | 50 | 72 | 0.0 | 0.0 | 0.00 | 0.02 | 0.00 | 86 | 1012.1 |
| 20260509065956 | 50 | 72 | 0.0 | 0.0 | 0.00 | 0.02 | 0.00 | 86 | 1012.3 |
| 20260509065450 | 50 | 72 | 0.0 | 0.0 | 0.00 | 0.02 | 0.00 | 86 | 1012.3 |
| 20260509065208 | 50 | 72 | 0.0 | 0.0 | 0.00 | 0.02 | 0.00 | 86 | 1012.1 |
| 20260509064448 | 50 | 72 | 0.0 | 0.0 | 0.00 | 0.02 | 0.00 | 86 | 1012.1 |
| 20260509064428 | 50 | 72 | 0.0 | 0.0 | 0.00 | 0.02 | 0.00 | 86 | 1012.1 |
| 20260509063712 | 50 | 72 | 0.0 | 0.0 | 0.00 | 0.02 | 0.00 | 86 | 1012.1 |
| 20260509062948 | 50 | 72 | 0.0 | 0.0 | 0.00 | 0.02 | 0.00 | 86 | 1012.1 |
| 20260509062447 | 50 | 72 | 0.0 | 0.0 | 0.00 | 0.02 | 0.00 | 86 | 1012.0 |
| 20260509061947 | 50 | 72 | 0.0 | 0.0 | 0.00 | 0.02 | 0.00 | 86 | 1012.4 |
| 20260509061711 | 50 | 72 | 0.0 | 0.0 | 0.00 | 0.02 | 0.00 | 86 | 1012.7 |
| 20260509061435 | 50 | 72 | 0.0 | 0.0 | 0.00 | 0.02 | 0.00 | 86 | 1012.7 |
| 20260509060447 | 51 | 72 | 0.0 | 0.0 | 0.00 | 0.02 | 0.00 | 86 | 1012.7 |
| 20260509055947 | 51 | 72 | 0.0 | 0.0 | 0.00 | 0.02 | 0.00 | 86 | 1012.9 |
| 20260509055447 | 51 | 72 | 0.0 | 0.0 | 0.00 | 0.03 | 0.00 | 85 | 1012.9 |
| 20260509055216 | 51 | 72 | 0.0 | 0.0 | 0.00 | 0.03 | 0.00 | 85 | 1013.0 |
| 20260509054449 | 51 | 72 | 0.0 | 0.0 | 0.00 | 0.03 | 0.00 | 85 | 1012.9 |
| 20260509053948 | 51 | 72 | 0.0 | 0.0 | 0.00 | 0.03 | 0.00 | 85 | 1013.0 |
| 20260509053722 | 51 | 72 | 0.0 | 0.0 | 0.00 | 0.03 | 0.00 | 84 | 1013.0 |
| 20260509053216 | 51 | 72 | 0.0 | 0.0 | 0.00 | 0.03 | 0.00 | 84 | 1013.1 |
| 20260509052713 | 51 | 72 | 0.0 | 0.0 | 0.00 | 0.03 | 0.00 | 84 | 1013.3 |
| 20260509052213 | 50 | 72 | 0.0 | 0.0 | 0.00 | 0.03 | 0.00 | 85 | 1013.4 |
| 20260509051447 | 50 | 72 | 0.0 | 0.0 | 0.00 | 0.03 | 0.00 | 84 | 1013.4 |
| 20260509050945 | 50 | 72 | 0.0 | 0.0 | 0.00 | 0.03 | 0.00 | 84 | 1013.3 |
| 20260509050452 | 50 | 72 | 0.0 | 0.0 | 0.00 | 0.03 | 0.00 | 83 | 1013.1 |
| 20260509045946 | 50 | 72 | 0.0 | 0.0 | 0.00 | 0.03 | 0.00 | 82 | 1013.2 |
| 20260509045447 | 50 | 72 | 0.0 | 0.0 | 0.00 | 0.03 | 0.00 | 82 | 1013.0 |
| 20260509044940 | 50 | 72 | 0.0 | 0.0 | 0.00 | 0.03 | 0.00 | 82 | 1013.2 |
| 20260509044434 | 50 | 72 | 0.0 | 0.0 | 0.00 | 0.03 | 0.00 | 81 | 1013.3 |
| 20260509043932 | 50 | 72 | 0.0 | 0.0 | 0.00 | 0.03 | 0.00 | 81 | 1013.3 |
| 20260509043423 | 50 | 72 | 0.0 | 0.0 | 0.00 | 0.03 | 0.00 | 81 | 1013.3 |
| 20260509043142 | 50 | 72 | 0.0 | 0.0 | 0.00 | 0.03 | 0.00 | 81 | 1013.2 |
| 20260509042402 | 50 | 72 | 0.0 | 0.0 | 0.00 | 0.03 | 0.00 | 81 | 1013.1 |
| 20260509041857 | 50 | 72 | 0.0 | 0.0 | 0.00 | 0.03 | 0.00 | 81 | 1013.2 |
| 20260509041351 | 50 | 72 | 0.0 | 0.0 | 0.00 | 0.03 | 0.00 | 81 | 1013.1 |
| 20260509040842 | 50 | 72 | 0.0 | 0.0 | 0.00 | 0.03 | 0.00 | 80 | 1013.0 |
| 20260509040335 | 51 | 72 | 0.0 | 0.0 | 0.00 | 0.03 | 0.00 | 80 | 1013.3 |
| 20260509035829 | 51 | 72 | 0.0 | 0.0 | 0.00 | 0.03 | 0.03 | 80 | 1013.2 |
| 20260509035550 | 51 | 72 | 0.0 | 0.0 | 0.00 | 0.03 | 0.03 | 80 | 1013.3 |
| 20260509034813 | 51 | 72 | 0.0 | 0.0 | 0.00 | 0.03 | 0.03 | 80 | 1013.3 |
| 20260509034306 | 51 | 72 | 0.0 | 0.0 | 0.00 | 0.03 | 0.03 | 80 | 1013.2 |
| 20260509034019 | 51 | 72 | 0.0 | 0.0 | 0.00 | 0.03 | 0.03 | 80 | 1013.2 |
| 20260509033250 | 51 | 72 | 0.0 | 0.0 | 0.00 | 0.03 | 0.03 | 81 | 1013.2 |
| 20260509032745 | 51 | 72 | 0.0 | 0.0 | 0.00 | 0.03 | 0.03 | 80 | 1013.3 |
| 20260509032234 | 51 | 72 | 0.0 | 0.0 | 0.00 | 0.03 | 0.03 | 81 | 1013.2 |
| 20260509031729 | 51 | 72 | 0.0 | 0.0 | 0.00 | 0.03 | 0.03 | 81 | 1013.3 |
| 20260509031223 | 51 | 72 | 0.0 | 0.0 | 0.00 | 0.03 | 0.03 | 82 | 1013.3 |
| 20260509030713 | 51 | 72 | 0.0 | 0.0 | 0.00 | 0.03 | 0.03 | 82 | 1013.4 |
| 20260509030206 | 51 | 72 | 0.0 | 0.0 | 0.00 | 0.03 | 0.03 | 82 | 1013.4 |
| 20260509025700 | 51 | 72 | 0.0 | 0.0 | 0.00 | 0.03 | 0.03 | 81 | 1013.4 |
| 20260509025151 | 51 | 72 | 0.0 | 0.0 | 0.00 | 0.03 | 0.03 | 81 | 1013.3 |
| 20260509024646 | 51 | 72 | 0.0 | 0.0 | 0.00 | 0.03 | 0.03 | 81 | 1013.2 |
| 20260509024138 | 51 | 72 | 0.0 | 0.0 | 0.00 | 0.03 | 0.03 | 81 | 1013.3 |
| 20260509023629 | 51 | 72 | 0.0 | 0.0 | 0.00 | 0.03 | 0.03 | 81 | 1013.2 |
| 20260509023123 | 51 | 72 | 0.0 | 0.0 | 0.00 | 0.03 | 0.03 | 81 | 1013.3 |
| 20260509022842 | 51 | 72 | 0.0 | 0.0 | 0.00 | 0.03 | 0.03 | 80 | 1013.2 |
| 20260509022107 | 51 | 72 | 0.0 | 0.0 | 0.00 | 0.03 | 0.03 | 80 | 1013.2 |
| 20260509021601 | 51 | 72 | 0.0 | 0.0 | 0.00 | 0.03 | 0.03 | 79 | 1013.1 |
| 20260509021055 | 51 | 72 | 0.0 | 0.0 | 0.00 | 0.03 | 0.03 | 79 | 1013.0 |
| 20260509020544 | 51 | 72 | 0.0 | 0.0 | 0.00 | 0.03 | 0.03 | 78 | 1012.9 |
| 20260509020039 | 51 | 72 | 0.0 | 0.0 | 0.00 | 0.03 | 0.03 | 79 | 1012.9 |
| 20260509015533 | 51 | 72 | 0.0 | 0.0 | 0.00 | 0.03 | 0.03 | 78 | 1012.9 |
| 20260509015021 | 52 | 72 | 0.0 | 0.0 | 0.00 | 0.03 | 0.03 | 78 | 1012.8 |
| 20260509014515 | 52 | 72 | 0.0 | 0.0 | 0.00 | 0.03 | 0.03 | 78 | 1012.6 |
| 20260509014009 | 52 | 72 | 0.0 | 0.0 | 0.00 | 0.03 | 0.03 | 77 | 1012.7 |
| 20260509013458 | 52 | 72 | 0.0 | 0.0 | 0.00 | 0.03 | 0.03 | 77 | 1012.6 |
| 20260509012953 | 52 | 72 | 0.0 | 0.0 | 0.00 | 0.03 | 0.03 | 77 | 1012.5 |
| 20260509012447 | 52 | 72 | 0.0 | 0.0 | 0.00 | 0.03 | 0.03 | 77 | 1012.4 |
| 20260509011936 | 52 | 72 | 0.0 | 0.0 | 0.00 | 0.03 | 0.03 | 75 | 1012.2 |
| 20260509011431 | 53 | 72 | 0.0 | 0.0 | 0.00 | 0.03 | 0.03 | 75 | 1012.2 |
| 20260509010925 | 53 | 72 | 0.0 | 0.0 | 0.00 | 0.03 | 0.03 | 75 | 1012.1 |
| 20260509010636 | 53 | 72 | 0.0 | 0.0 | 0.00 | 0.03 | 0.03 | 74 | 1012.1 |
| 20260509005909 | 53 | 72 | 0.0 | 0.0 | 0.00 | 0.03 | 0.03 | 74 | 1011.8 |
| 20260509005625 | 53 | 72 | 0.0 | 0.0 | 0.00 | 0.03 | 0.03 | 74 | 1011.9 |
| 20260509004853 | 53 | 72 | 0.0 | 0.0 | 0.00 | 0.03 | 0.03 | 73 | 1011.7 |
| 20260509004348 | 54 | 72 | 0.0 | 0.0 | 0.00 | 0.03 | 0.03 | 72 | 1011.6 |
| 20260509003841 | 54 | 72 | 0.0 | 0.0 | 0.00 | 0.03 | 0.03 | 70 | 1011.5 |
| 20260509003331 | 54 | 72 | 0.0 | 0.0 | 0.00 | 0.03 | 0.03 | 70 | 1011.5 |
| 20260509002825 | 54 | 72 | 0.0 | 0.0 | 0.00 | 0.03 | 0.03 | 70 | 1011.4 |
| 20260509002318 | 55 | 72 | 0.0 | 0.0 | 0.00 | 0.03 | 0.03 | 70 | 1011.4 |
| 20260509001822 | 55 | 72 | 0.0 | 0.0 | 0.00 | 0.03 | 0.03 | 69 | 1011.4 |
| 20260509001303 | 55 | 72 | 0.0 | 0.0 | 0.00 | 0.03 | 0.03 | 69 | 1011.5 |
| 20260509000756 | 55 | 72 | 0.0 | 0.0 | 0.00 | 0.03 | 0.03 | 69 | 1011.4 |
| 20260509000248 | 55 | 72 | 0.0 | 0.0 | 0.00 | 0.03 | 0.03 | 69 | 1011.4 |
| 20260508235741 | 55 | 72 | 0.0 | 0.0 | 0.00 | 0.03 | 0.03 | 68 | 1011.4 |
| 20260508235235 | 56 | 72 | 0.0 | 0.0 | 0.00 | 0.03 | 0.03 | 69 | 1011.5 |
| 20260508234725 | 56 | 72 | 0.0 | 0.0 | 0.00 | 0.03 | 0.03 | 68 | 1011.5 |
| 20260508234439 | 56 | 72 | 0.0 | 0.0 | 0.00 | 0.03 | 0.03 | 67 | 1011.6 |
| 20260508233713 | 56 | 72 | 0.0 | 0.0 | 0.00 | 0.03 | 0.03 | 66 | 1011.5 |
| 20260508233203 | 56 | 72 | 0.0 | 0.0 | 0.00 | 0.03 | 0.03 | 65 | 1011.5 |
| 20260508232657 | 56 | 72 | 0.0 | 0.0 | 0.00 | 0.03 | 0.03 | 64 | 1011.5 |
| 20260508232150 | 57 | 72 | 0.0 | 0.0 | 0.00 | 0.03 | 0.03 | 63 | 1011.3 |
| 20260508231641 | 57 | 72 | 0.0 | 2.0 | 0.00 | 0.03 | 0.03 | 63 | 1011.3 |
| 20260508231404 | 57 | 72 | 0.0 | 2.0 | 0.00 | 0.03 | 0.03 | 62 | 1011.4 |
| 20260508230629 | 57 | 72 | 0.0 | 2.0 | 0.00 | 0.03 | 0.03 | 62 | 1011.4 |
| 20260508230119 | 57 | 72 | 0.0 | 2.0 | 0.00 | 0.03 | 0.03 | 61 | 1011.4 |
| 20260508225838 | 57 | 72 | 1.0 | 2.0 | 0.00 | 0.03 | 0.03 | 62 | 1011.4 |
| 20260508225107 | 57 | 56 | 1.0 | 2.0 | 0.00 | 0.03 | 0.03 | 60 | 1011.2 |
| 20260508224607 | 58 | 56 | 1.0 | 2.0 | 0.00 | 0.03 | 0.03 | 62 | 1011.1 |
| 20260508224051 | 58 | 56 | 0.0 | 2.0 | 0.00 | 0.03 | 0.03 | 62 | 1011.2 |
| 20260508223544 | 58 | 56 | 0.0 | 2.0 | 0.00 | 0.03 | 0.03 | 63 | 1011.4 |
| 20260508223257 | 57 | 56 | 0.0 | 1.0 | 0.00 | 0.03 | 0.03 | 62 | 1011.3 |
| 20260508222529 | 57 | 56 | 0.0 | 2.0 | 0.00 | 0.03 | 0.03 | 62 | 1011.4 |
| 20260508222242 | 57 | 56 | 0.0 | 2.0 | 0.00 | 0.03 | 0.03 | 62 | 1011.4 |
| 20260508221736 | 58 | 21 | 0.0 | 3.0 | 0.00 | 0.03 | 0.03 | 63 | 1011.4 |
| 20260508221006 | 58 | 21 | 0.0 | 3.0 | 0.00 | 0.03 | 0.03 | 62 | 1011.4 |
| 20260508220500 | 58 | 165 | 1.0 | 4.0 | 0.00 | 0.03 | 0.03 | 60 | 1011.4 |
| 20260508215951 | 58 | 165 | 1.0 | 4.0 | 0.00 | 0.03 | 0.03 | 61 | 1011.3 |
| 20260508215935 | 58 | 152 | 1.0 | 4.0 | 0.00 | 0.03 | 0.03 | 62 | 1011.3 |
| 20260508215157 | 58 | 140 | 1.0 | 4.0 | 0.00 | 0.03 | 0.03 | 62 | 1011.3 |
| 20260508214429 | 58 | 61 | 1.0 | 4.0 | 0.00 | 0.03 | 0.03 | 63 | 1011.2 |
| 20260508213926 | 58 | 38 | 1.0 | 4.0 | 0.00 | 0.03 | 0.03 | 62 | 1011.2 |
| 20260508213424 | 58 | 52 | 1.0 | 4.0 | 0.00 | 0.03 | 0.03 | 63 | 1011.2 |
| 20260508212922 | 58 | 158 | 1.0 | 4.0 | 0.00 | 0.03 | 0.03 | 62 | 1011.2 |
| 20260508212642 | 58 | 101 | 1.0 | 5.0 | 0.00 | 0.03 | 0.03 | 63 | 1011.3 |
| 20260508211924 | 58 | 74 | 1.0 | 5.0 | 0.00 | 0.03 | 0.03 | 61 | 1011.3 |
| 20260508211422 | 58 | 75 | 2.0 | 5.0 | 0.00 | 0.03 | 0.03 | 62 | 1011.3 |
| 20260508210924 | 58 | 88 | 2.0 | 6.0 | 0.00 | 0.03 | 0.03 | 63 | 1011.3 |
| 20260508210421 | 58 | 86 | 2.0 | 6.0 | 0.00 | 0.03 | 0.03 | 64 | 1011.4 |
| 20260508210143 | 58 | 74 | 2.0 | 6.0 | 0.00 | 0.03 | 0.03 | 62 | 1011.6 |
| 20260508205648 | 58 | 80 | 1.0 | 4.0 | 0.00 | 0.03 | 0.03 | 62 | 1011.6 |
| 20260508204918 | 58 | 69 | 1.0 | 4.0 | 0.00 | 0.03 | 0.03 | 61 | 1011.7 |
| 20260508204419 | 59 | 168 | 1.0 | 4.0 | 0.00 | 0.03 | 0.03 | 61 | 1011.6 |
| 20260508203917 | 59 | 167 | 0.0 | 3.0 | 0.00 | 0.03 | 0.03 | 63 | 1011.6 |
| 20260508203416 | 59 | 65 | 1.0 | 3.0 | 0.00 | 0.03 | 0.03 | 63 | 1011.5 |
| 20260508202919 | 58 | 65 | 1.0 | 6.0 | 0.00 | 0.03 | 0.03 | 64 | 1011.5 |
| 20260508202420 | 58 | 84 | 1.0 | 6.0 | 0.00 | 0.03 | 0.03 | 63 | 1011.5 |
| 20260508202403 | 59 | 68 | 1.0 | 4.0 | 0.00 | 0.03 | 0.03 | 61 | 1011.4 |
| 20260508201415 | 59 | 78 | 0.0 | 3.0 | 0.00 | 0.03 | 0.03 | 60 | 1011.5 |
| 20260508201355 | 60 | 124 | 0.0 | 5.0 | 0.00 | 0.03 | 0.03 | 55 | 1011.3 |
| 20260508200633 | 60 | 207 | 0.0 | 5.0 | 0.00 | 0.03 | 0.03 | 52 | 1011.2 |
| 20260508195914 | 60 | 207 | 1.0 | 5.0 | 0.00 | 0.03 | 0.03 | 52 | 1011.3 |
| 20260508195412 | 60 | 207 | 1.0 | 5.0 | 0.00 | 0.03 | 0.03 | 52 | 1011.1 |
| 20260508194911 | 60 | 190 | 1.0 | 4.0 | 0.00 | 0.03 | 0.03 | 51 | 1011.2 |
| 20260508194410 | 60 | 188 | 0.0 | 4.0 | 0.00 | 0.03 | 0.03 | 50 | 1011.2 |
| 20260508193912 | 60 | 184 | 0.0 | 6.0 | 0.00 | 0.03 | 0.03 | 53 | 1011.2 |
| 20260508193632 | 60 | 184 | 1.0 | 6.0 | 0.00 | 0.03 | 0.03 | 50 | 1011.2 |
| 20260508192908 | 60 | 57 | 2.0 | 6.0 | 0.00 | 0.03 | 0.03 | 53 | 1011.2 |
| 20260508192408 | 60 | 72 | 2.0 | 7.0 | 0.00 | 0.03 | 0.03 | 52 | 1011.2 |
| 20260508191910 | 60 | 141 | 1.0 | 7.0 | 0.00 | 0.03 | 0.03 | 51 | 1011.2 |
| 20260508191410 | 60 | 30 | 2.0 | 8.0 | 0.00 | 0.03 | 0.03 | 50 | 1011.5 |
| 20260508190908 | 61 | 80 | 2.0 | 8.0 | 0.00 | 0.03 | 0.03 | 51 | 1011.4 |
| 20260508190408 | 61 | 61 | 2.0 | 8.0 | 0.00 | 0.03 | 0.03 | 50 | 1011.2 |
| 20260508185908 | 61 | 197 | 2.0 | 8.0 | 0.00 | 0.03 | 0.03 | 49 | 1011.2 |
| 20260508185409 | 61 | 130 | 2.0 | 5.0 | 0.00 | 0.03 | 0.03 | 55 | 1011.5 |
| 20260508184908 | 60 | 147 | 1.0 | 5.0 | 0.00 | 0.03 | 0.03 | 52 | 1011.6 |
| 20260508184406 | 60 | 155 | 1.0 | 6.0 | 0.00 | 0.03 | 0.03 | 52 | 1011.6 |
| 20260508183907 | 59 | 210 | 1.0 | 6.0 | 0.00 | 0.03 | 0.03 | 51 | 1011.5 |
| 20260508183403 | 59 | 210 | 2.0 | 6.0 | 0.00 | 0.03 | 0.03 | 50 | 1011.4 |
| 20260508182904 | 59 | 189 | 2.0 | 7.0 | 0.00 | 0.03 | 0.03 | 48 | 1011.6 |
| 20260508182402 | 60 | 124 | 1.0 | 7.0 | 0.00 | 0.03 | 0.03 | 49 | 1011.5 |
| 20260508181903 | 60 | 72 | 2.0 | 7.0 | 0.00 | 0.03 | 0.03 | 48 | 1011.4 |
| 20260508181622 | 60 | 190 | 2.0 | 10.0 | 0.00 | 0.03 | 0.03 | 47 | 1011.3 |
| 20260508180902 | 61 | 218 | 2.0 | 10.0 | 0.00 | 0.03 | 0.03 | 47 | 1011.2 |
| 20260508180402 | 61 | 130 | 2.0 | 10.0 | 0.00 | 0.03 | 0.03 | 48 | 1011.3 |
| 20260508175904 | 62 | 170 | 2.0 | 10.0 | 0.00 | 0.03 | 0.03 | 46 | 1011.4 |
| 20260508175358 | 62 | 138 | 2.0 | 8.0 | 0.00 | 0.03 | 0.03 | 49 | 1011.5 |
| 20260508174859 | 61 | 149 | 2.0 | 8.0 | 0.00 | 0.03 | 0.03 | 49 | 1011.4 |
| 20260508174358 | 61 | 55 | 3.0 | 8.0 | 0.00 | 0.03 | 0.03 | 48 | 1011.4 |
| 20260508173856 | 61 | 181 | 3.0 | 10.0 | 0.00 | 0.03 | 0.03 | 48 | 1011.4 |
| 20260508173356 | 61 | 188 | 3.0 | 10.0 | 0.00 | 0.03 | 0.03 | 46 | 1011.5 |
| 20260508172859 | 61 | 57 | 2.0 | 9.0 | 0.00 | 0.03 | 0.03 | 52 | 1011.5 |
| 20260508172358 | 60 | 179 | 2.0 | 9.0 | 0.00 | 0.03 | 0.03 | 48 | 1011.6 |
| 20260508171856 | 60 | 71 | 3.0 | 9.0 | 0.00 | 0.03 | 0.03 | 47 | 1011.6 |
| 20260508171617 | 61 | 209 | 3.0 | 9.0 | 0.00 | 0.03 | 0.03 | 48 | 1011.5 |
| 20260508170857 | 62 | 214 | 2.0 | 6.0 | 0.00 | 0.03 | 0.03 | 47 | 1011.5 |
| 20260508170840 | 62 | 136 | 3.0 | 8.0 | 0.00 | 0.03 | 0.03 | 49 | 1011.6 |
| 20260508170115 | 61 | 178 | 3.0 | 12.0 | 0.00 | 0.03 | 0.03 | 49 | 1011.6 |
| 20260508165335 | 61 | 217 | 2.0 | 12.0 | 0.00 | 0.03 | 0.03 | 45 | 1011.7 |
| 20260508164828 | 61 | 281 | 2.0 | 7.0 | 0.00 | 0.03 | 0.03 | 51 | 1011.8 |
| 20260508164329 | 61 | 38 | 2.0 | 12.0 | 0.00 | 0.03 | 0.03 | 50 | 1011.8 |
| 20260508163828 | 61 | 218 | 2.0 | 12.0 | 0.00 | 0.03 | 0.03 | 51 | 1012.0 |
| 20260508163328 | 60 | 204 | 3.0 | 13.0 | 0.00 | 0.03 | 0.03 | 52 | 1012.1 |
| 20260508162829 | 60 | 35 | 3.0 | 13.0 | 0.00 | 0.03 | 0.03 | 51 | 1012.2 |
| 20260508162328 | 60 | 300 | 3.0 | 10.0 | 0.00 | 0.03 | 0.03 | 50 | 1012.4 |
| 20260508161829 | 60 | 215 | 2.0 | 10.0 | 0.00 | 0.03 | 0.03 | 49 | 1012.3 |
| 20260508161329 | 59 | 201 | 2.0 | 8.0 | 0.00 | 0.03 | 0.03 | 51 | 1012.3 |
| 20260508160826 | 59 | 207 | 2.0 | 6.0 | 0.00 | 0.03 | 0.03 | 50 | 1012.4 |
| 20260508160326 | 59 | 193 | 2.0 | 6.0 | 0.00 | 0.03 | 0.03 | 50 | 1012.4 |
| 20260508160052 | 59 | 209 | 3.0 | 8.0 | 0.00 | 0.03 | 0.03 | 52 | 1012.4 |
| 20260508155325 | 58 | 222 | 3.0 | 8.0 | 0.00 | 0.03 | 0.03 | 50 | 1012.3 |
| 20260508154827 | 58 | 204 | 2.0 | 8.0 | 0.00 | 0.03 | 0.03 | 52 | 1012.5 |
| 20260508154811 | 58 | 22 | 2.0 | 8.0 | 0.00 | 0.03 | 0.03 | 50 | 1012.8 |
| 20260508154309 | 58 | 82 | 2.0 | 8.0 | 0.00 | 0.03 | 0.03 | 50 | 1012.8 |
| 20260508153321 | 58 | 198 | 2.0 | 8.0 | 0.00 | 0.03 | 0.03 | 49 | 1012.7 |
| 20260508152813 | 58 | 57 | 2.0 | 8.0 | 0.00 | 0.03 | 0.03 | 49 | 1012.7 |
| 20260508152306 | 58 | 134 | 2.0 | 9.0 | 0.00 | 0.03 | 0.03 | 49 | 1012.7 |
| 20260508151757 | 59 | 196 | 2.0 | 9.0 | 0.00 | 0.03 | 0.03 | 47 | 1012.8 |
| 20260508151250 | 60 | 229 | 2.0 | 7.0 | 0.00 | 0.03 | 0.03 | 49 | 1012.6 |